When you browse on this site, cookies collect data to enhance your experience and personalize the content and advertising you see.
Visit our Privacy Policy to learn more. By continuing to use the site, you agree to this use of cookies and data.
EN

Hourly Weather Klishkivtsi

Today, 9 August, Sunday

Time Temperature Precipitation Wind Pressure Humidity
00:00 +20°C° 0 mm 1 mps 742 mmHg 81%
01:00 +20°C° 0 mm 1 mps 742 mmHg 82%
02:00 +20°C° 0 mm 1 mps 742 mmHg 86%
03:00 +17°C° 0 mm 0 mps 741 mmHg 86%
04:00 +17°C° 0 mm 0 mps 741 mmHg 87%
05:00 +17°C° 0 mm 0 mps 741 mmHg 88%
06:00 +20°C° 0 mm 1 mps 741 mmHg 82%
07:00 +22°C° 0 mm 1 mps 741 mmHg 76%
08:00 +24°C° 0 mm 1 mps 742 mmHg 67%
09:00 +25°C° 0 mm 1 mps 742 mmHg 63%
10:00 +26°C° 0 mm 2 mps 742 mmHg 59%
11:00 +27°C° 0 mm 2 mps 742 mmHg 55%
12:00 +27°C° 0.7 mm 2 mps 741 mmHg 56%
13:00 +28°C° 0.7 mm 2 mps 741 mmHg 57%
14:00 +28°C° 0 mm 2 mps 741 mmHg 58%
15:00 +28°C° 0.4 mm 2 mps 741 mmHg 57%
16:00 +28°C° 0.4 mm 2 mps 740 mmHg 57%
17:00 +28°C° 0.4 mm 2 mps 740 mmHg 57%
18:00 +26°C° 0 mm 1 mps 740 mmHg 62%
19:00 +24°C° 0 mm 1 mps 740 mmHg 68%
20:00 +23°C° 0 mm 1 mps 740 mmHg 74%
21:00 +20°C° 0 mm 0 mps 740 mmHg 75%
22:00 +19°C° 0 mm 0 mps 740 mmHg 76%
23:00 +19°C° 0 mm 0 mps 740 mmHg 78%

Tomorrow, 10 August, Monday

Time Temperature Precipitation Wind Pressure Humidity
00:00 +19°C° 0 mm 0 mps 740 mmHg 79%
01:00 +18°C° 0 mm 0 mps 740 mmHg 81%
02:00 +18°C° 0 mm 0 mps 740 mmHg 82%
03:00 +18°C° 0.1 mm 0 mps 740 mmHg 84%
04:00 +17°C° 0.1 mm 0 mps 740 mmHg 85%
05:00 +17°C° 0.1 mm 0 mps 739 mmHg 86%
06:00 +18°C° 0.6 mm 0 mps 739 mmHg 83%
07:00 +19°C° 0.6 mm 0 mps 739 mmHg 81%
08:00 +20°C° 0.6 mm 0 mps 739 mmHg 78%
09:00 +22°C° 1.1 mm 0 mps 740 mmHg 73%
10:00 +25°C° 1.1 mm 1 mps 740 mmHg 69%
11:00 +26°C° 1.1 mm 1 mps 740 mmHg 64%
12:00 +27°C° 0.4 mm 1 mps 739 mmHg 59%
13:00 +28°C° 0.4 mm 1 mps 739 mmHg 55%
14:00 +29°C° 0.4 mm 1 mps 739 mmHg 50%
15:00 +29°C° 0.1 mm 1 mps 739 mmHg 51%
16:00 +29°C° 0.1 mm 1 mps 739 mmHg 51%
17:00 +29°C° 0.1 mm 1 mps 739 mmHg 52%
18:00 +27°C° 0.2 mm 1 mps 739 mmHg 58%
19:00 +25°C° 0.2 mm 1 mps 739 mmHg 65%
20:00 +23°C° 0.2 mm 1 mps 739 mmHg 71%
21:00 +22°C° 0.4 mm 1 mps 739 mmHg 75%
22:00 +21°C° 0.4 mm 1 mps 739 mmHg 79%
23:00 +21°C° 0.4 mm 1 mps 739 mmHg 83%

Day after tomorrow, 11 August, Tuesday

Time Temperature Precipitation Wind Pressure Humidity
00:00 +20°C° 0.1 mm 1 mps 739 mmHg 85%
01:00 +20°C° 0.1 mm 1 mps 739 mmHg 86%
02:00 +19°C° 0.1 mm 1 mps 739 mmHg 88%
03:00 +19°C° 0 mm 1 mps 739 mmHg 89%
04:00 +19°C° 0 mm 1 mps 739 mmHg 90%
05:00 +18°C° 0 mm 1 mps 739 mmHg 91%
06:00 +20°C° 0 mm 1 mps 739 mmHg 87%
07:00 +20°C° 0 mm 2 mps 740 mmHg 83%
08:00 +21°C° 0 mm 2 mps 740 mmHg 79%
09:00 +24°C° 0 mm 2 mps 740 mmHg 73%
10:00 +25°C° 0 mm 2 mps 740 mmHg 66%
11:00 +27°C° 0 mm 2 mps 740 mmHg 60%
12:00 +27°C° 0.2 mm 2 mps 740 mmHg 58%
13:00 +28°C° 0.2 mm 2 mps 740 mmHg 55%
14:00 +28°C° 0.2 mm 2 mps 740 mmHg 53%
15:00 +28°C° 0 mm 2 mps 740 mmHg 54%
16:00 +28°C° 0 mm 2 mps 739 mmHg 54%
17:00 +28°C° 0 mm 2 mps 739 mmHg 55%
18:00 +26°C° 0.1 mm 2 mps 739 mmHg 62%
19:00 +24°C° 0.1 mm 2 mps 739 mmHg 68%
20:00 +23°C° 0.1 mm 2 mps 739 mmHg 74%
21:00 +21°C° 0 mm 2 mps 739 mmHg 76%
22:00 +21°C° 0 mm 1 mps 739 mmHg 79%
23:00 +20°C° 0 mm 1 mps 739 mmHg 81%

12 August, Wednesday

Time Temperature Precipitation Wind Pressure Humidity
00:00 +20°C° 0.1 mm 1 mps 739 mmHg 84%
01:00 +19°C° 0.1 mm 1 mps 739 mmHg 87%
02:00 +19°C° 0.1 mm 1 mps 739 mmHg 89%
03:00 +17°C° 0 mm 2 mps 739 mmHg 91%
04:00 +17°C° 0 mm 2 mps 739 mmHg 92%
05:00 +17°C° 0 mm 2 mps 739 mmHg 94%
06:00 +18°C° 0 mm 2 mps 740 mmHg 90%
07:00 +19°C° 0 mm 2 mps 740 mmHg 85%
08:00 +21°C° 0 mm 3 mps 740 mmHg 81%
09:00 +22°C° 0.7 mm 3 mps 740 mmHg 77%
10:00 +24°C° 0.7 mm 3 mps 740 mmHg 74%
11:00 +25°C° 0.7 mm 4 mps 740 mmHg 70%
12:00 +25°C° 0.6 mm 4 mps 740 mmHg 68%
13:00 +26°C° 0.6 mm 4 mps 740 mmHg 66%
14:00 +26°C° 0.6 mm 4 mps 740 mmHg 64%
15:00 +26°C° 0.3 mm 4 mps 740 mmHg 63%
16:00 +25°C° 0.3 mm 4 mps 740 mmHg 62%
17:00 +25°C° 0.3 mm 4 mps 740 mmHg 61%
18:00 +22°C° 0 mm 4 mps 741 mmHg 66%
19:00 +20°C° 0 mm 3 mps 741 mmHg 71%
20:00 +18°C° 0 mm 3 mps 741 mmHg 76%
21:00 +18°C° 0 mm 2 mps 741 mmHg 78%
22:00 +17°C° 0 mm 2 mps 741 mmHg 80%
23:00 +16°C° 0 mm 2 mps 742 mmHg 82%

13 August, Thursday

Time Temperature Precipitation Wind Pressure Humidity
00:00 +15°C° 0 mm 1 mps 742 mmHg 82%
01:00 +15°C° 0 mm 1 mps 742 mmHg 82%
02:00 +13°C° 0 mm 0 mps 742 mmHg 83%
03:00 +14°C° 0 mm 1 mps 742 mmHg 83%
04:00 +14°C° 0 mm 1 mps 741 mmHg 84%
05:00 +13°C° 0 mm 1 mps 741 mmHg 84%
06:00 +15°C° 0 mm 1 mps 741 mmHg 79%
07:00 +16°C° 0 mm 1 mps 741 mmHg 74%
08:00 +19°C° 0 mm 1 mps 742 mmHg 68%
09:00 +20°C° 0 mm 1 mps 741 mmHg 64%
10:00 +22°C° 0 mm 1 mps 741 mmHg 59%
11:00 +23°C° 0 mm 1 mps 741 mmHg 54%
12:00 +24°C° 0 mm 2 mps 741 mmHg 52%
13:00 +24°C° 0 mm 2 mps 741 mmHg 50%
14:00 +25°C° 0 mm 2 mps 740 mmHg 47%
15:00 +25°C° 0 mm 2 mps 740 mmHg 48%
16:00 +25°C° 0 mm 2 mps 740 mmHg 49%
17:00 +25°C° 0 mm 2 mps 740 mmHg 50%
18:00 +23°C° 0 mm 2 mps 740 mmHg 57%
19:00 +20°C° 0 mm 3 mps 740 mmHg 65%
20:00 +18°C° 0 mm 3 mps 740 mmHg 72%
21:00 +17°C° 0 mm 3 mps 741 mmHg 74%
22:00 +16°C° 0 mm 2 mps 741 mmHg 76%
23:00 +15°C° 0 mm 2 mps 741 mmHg 78%

14 August, Friday

Time Temperature Precipitation Wind Pressure Humidity
00:00 +15°C° 0 mm 2 mps 741 mmHg 77%
01:00 +15°C° 0 mm 1 mps 741 mmHg 77%
02:00 +15°C° 0 mm 1 mps 741 mmHg 76%
03:00 +15°C° 0 mm 1 mps 741 mmHg 76%
04:00 +15°C° 0 mm 1 mps 741 mmHg 76%
05:00 +15°C° 0 mm 2 mps 741 mmHg 75%
06:00 +15°C° 0 mm 2 mps 741 mmHg 74%
07:00 +16°C° 0 mm 2 mps 741 mmHg 72%
08:00 +17°C° 0 mm 3 mps 741 mmHg 70%
09:00 +18°C° 0 mm 3 mps 741 mmHg 66%
10:00 +20°C° 0 mm 3 mps 741 mmHg 61%
11:00 +21°C° 0 mm 3 mps 741 mmHg 56%
12:00 +22°C° 0 mm 3 mps 741 mmHg 54%
13:00 +22°C° 0 mm 3 mps 741 mmHg 52%
14:00 +24°C° 0 mm 3 mps 740 mmHg 50%
15:00 +24°C° 0 mm 3 mps 740 mmHg 50%
16:00 +24°C° 0 mm 3 mps 740 mmHg 50%
17:00 +24°C° 0 mm 2 mps 740 mmHg 50%
18:00 +21°C° 0 mm 3 mps 740 mmHg 55%
19:00 +19°C° 0 mm 3 mps 740 mmHg 60%
20:00 +17°C° 0 mm 3 mps 740 mmHg 65%
21:00 +17°C° 0 mm 3 mps 740 mmHg 66%
22:00 +16°C° 0 mm 3 mps 740 mmHg 68%
23:00 +14°C° 0 mm 3 mps 740 mmHg 69%
Show more